Temp
-6 -6 -7 -7 -7 -7 -7 -7 -6 -7 -7 -7 -7 -7 -7 -7 -7 -6 -6 -7 -6 -6 -6 -6 -6 -6 -6 -6 -6 -6 -6 -6 -5 -6 -6 -6 -6 -6 -6 -6 -6 -6 -6 -6 -6 -6 -6 -6 -6
-6 -6 -6 -6 -6 -6 -6 -6 -6 -6 -6 -6 -7 -7 -7 -6 -6 -6 -6 -6 -6 -6 -6 -6 -6 -6 -6 -6 -6 -6 -6 -6 -6 -6 -6 -6 -6 -6 -6 -6 -6 -6 -6 -6 -6 -6 -7 -7 -7
-6 -6 -6 -6 -6 -6 -6 -6 -6 -6 -6 -6 -6 -6 -7 -7 -7 -7 -7 -6 -6 -6 -6 -7 -7 -7 -7 -7 -7 -7 -7 -7 -7 -7 -7 -7 -6 -7 -7 -7 -7 -7 -7 -7 -7 -7 -7 -7 -7
-5 -6 -6 -6 -6 -6 -6 -6 -6 -6 -6 -6 -6 -6 -6 -6 -6 -7 -7 -7 -7 -7 -7 -7 -7 -7 -7 -7 -7 -7 -7 -7 -7 -7 -7 -7 -7 -7 -7 -7 -7 -7 -7 -8 -8 -8 -8 -7 -7
-5 -5 -5 -6 -6 -6 -6 -6 -6 -6 -6 -6 -6 -6 -5 -5 -6 -6 -6 -6 -7 -7 -7 -7 -7 -7 -7 -7 -7 -7 -7 -7 -7 -7 -8 -8 -7 -7 -7 -7 -7 -8 -8 -8 -8 -8 -8 -8 -8
-5 -5 -6 -5 -5 -5 -6 -6 -6 -6 -6 -6 -6 -6 -5 -6 -6 -6 -6 -6 -6 -6 -6 -6 -6 -6 -6 -7 -7 -7 -7 -7 -7 -7 -8 -8 -8 -8 -8 -8 -7 -8 -8 -8 -8 -8 -8 -8 -8
-5 -5 -5 -6 -5 -5 -6 -6 -6 -6 -6 -6 -6 -6 -6 -6 -6 -6 -7 -7 -6 -6 -7 -7 -7 -7 -7 -7 -7 -7 -7 -7 -7 -7 -8 -8 -8 -8 -8 -8 -8 -8 -8 -8 -9 -9 -9 -9 -9
-5 -5 -5 -5 -6 -6 -6 -6 -6 -6 -5 -6 -6 -6 -6 -6 -7 -7 -7 -7 -7 -7 -6 -6 -7 -7 -7 -7 -7 -7 -7 -7 -7 -7 -8 -8 -8 -8 -8 -9 -9 -9 -9 -9 -9 -9 -9 -9 -9
-5 -5 -5 -5 -6 -5 -6 -6 -6 -6 -6 -6 -6 -6 -6 -6 -7 -7 -7 -7 -7 -7 -7 -7 -7 -7 -7 -7 -7 -7 -7 -7 -8 -8 -8 -8 -8 -9 -9 -9 -9 -9 -9 -9 -9 -9 -9 -9 -9
-5 -5 -5 -6 -6 -6 -6 -6 -6 -6 -6 -6 -6 -6 -7 -7 -7 -7 -7 -7 -7 -7 -7 -7 -7 -7 -7 -7 -8 -8 -8 -8 -8 -8 -8 -8 -8 -8 -8 -9 -9 -9 -9 -10 -9 -9 -9 -9 -10
-6 -6 -6 -6 -6 -6 -6 -7 -7 -7 -7 -7 -7 -7 -7 -8 -8 -8 -8 -7 -7 -7 -7 -7 -7 -7 -8 -8 -8 -8 -8 -8 -8 -8 -9 -9 -9 -9 -9 -9 -9 -9 -10 -10 -10 -10 -10 -10 -10
-6 -6 -6 -6 -6 -6 -6 -6 -7 -7 -7 -7 -8 -7 -7 -7 -7 -8 -8 -8 -8 -8 -8 -8 -8 -8 -8 -8 -8 -8 -8 -8 -9 -9 -9 -9 -9 -9 -9 -9 -9 -9 -10 -10 -10 -10 -10 -10 -11
-6 -7 -7 -7 -7 -6 -7 -7 -7 -8 -8 -8 -8 -9 -8 -8 -8 -8 -8 -8 -8 -9 -8 -9 -8 -8 -8 -8 -8 -9 -9 -9 -9 -9 -9 -9 -9 -9 -9 -9 -9 -9 -9 -10 -10 -10 -10 -11 -11
-7 -7 -7 -7 -7 -7 -7 -7 -7 -8 -9 -9 -9 -9 -9 -8 -9 -9 -8 -9 -9 -9 -9 -9 -9 -9 -9 -9 -9 -9 -9 -9 -9 -9 -9 -9 -10 -9 -9 -9 -9 -10 -10 -10 -10 -10 -9 -10 -12
-8 -8 -8 -8 -8 -8 -8 -8 -8 -8 -9 -9 -9 -9 -9 -8 -9 -9 -9 -9 -9 -9 -9 -10 -10 -10 -10 -10 -10 -10 -10 -10 -9 -10 -10 -10 -10 -10 -10 -9 -9 -9 -9 -10 -10 -11 -11 -11 -10
-8 -9 -8 -8 -9 -9 -9 -9 -9 -9 -9 -9 -9 -9 -9 -9 -9 -9 -9 -9 -10 -10 -10 -10 -10 -11 -11 -11 -11 -10 -11 -10 -10 -10 -11 -11 -10 -10 -10 -10 -10 -9 -10 -11 -11 -11 -11 -11 -10
-9 -9 -9 -9 -9 -9 -9 -9 -10 -10 -9 -9 -9 -9 -9 -10 -10 -10 -10 -10 -10 -10 -11 -11 -11 -11 -11 -11 -11 -11 -12 -12 -11 -11 -11 -11 -11 -11 -10 -10 -10 -10 -10 -10 -11 -11 -11 -11 -11
-10 -10 -10 -10 -10 -9 -9 -9 -9 -10 -10 -10 -10 -10 -10 -10 -10 -10 -10 -11 -11 -11 -11 -12 -12 -12 -12 -12 -11 -12 -12 -12 -12 -12 -12 -11 -11 -11 -11 -11 -11 -10 -10 -11 -11 -11 -11 -11 -11
-10 -10 -10 -10 -10 -10 -10 -10 -10 -10 -10 -10 -10 -10 -10 -10 -11 -11 -12 -12 -12 -12 -12 -12 -13 -13 -13 -12 -12 -12 -12 -13 -13 -13 -12 -11 -11 -11 -11 -11 -11 -11 -11 -11 -11 -11 -11 -11 -11
-10 -10 -10 -10 -11 -10 -10 -10 -10 -11 -10 -10 -11 -11 -11 -12 -13 -13 -13 -13 -13 -13 -13 -13 -13 -13 -14 -13 -13 -12 -13 -13 -13 -13 -12 -12 -12 -12 -11 -12 -12 -11 -11 -11 -11 -11 -11 -11 -11
-11 -11 -11 -11 -11 -11 -11 -11 -11 -11 -11 -11 -11 -12 -13 -14 -15 -15 -14 -14 -14 -14 -14 -14 -14 -14 -14 -14 -13 -13 -13 -13 -13 -14 -13 -13 -13 -13 -13 -12 -12 -12 -12 -12 -12 -12 -11 -12 -11
-11 -12 -12 -12 -12 -12 -12 -12 -12 -14 -13 -13 -12 -13 -14 -15 -15 -15 -15 -15 -15 -14 -14 -15 -15 -15 -14 -14 -14 -13 -14 -14 -14 -14 -14 -14 -13 -13 -13 -13 -13 -13 -12 -12 -12 -12 -12 -12 -12
-12 -13 -13 -13 -13 -13 -12 -13 -13 -13 -16 -18 -15 -15 -15 -16 -16 -15 -16 -16 -16 -15 -15 -15 -16 -15 -14 -14 -14 -14 -15 -15 -15 -14 -14 -14 -13 -13 -14 -14 -13 -14 -13 -12 -12 -12 -12 -12 -12
-13 -13 -14 -14 -14 -14 -13 -15 -14 -17 -17 -17 -17 -17 -17 -17 -17 -17 -17 -16 -16 -16 -16 -16 -16 -16 -15 -15 -15 -15 -15 -15 -15 -14 -14 -13 -14 -14 -14 -14 -14 -14 -13 -13 -13 -12 -12 -12 -12
-14 -14 -15 -15 -16 -16 -18 -19 -18 -18 -18 -17 -18 -19 -18 -18 -18 -18 -17 -17 -16 -16 -16 -16 -16 -16 -16 -16 -16 -16 -15 -15 -15 -15 -14 -14 -14 -14 -14 -14 -14 -14 -14 -13 -13 -13 -13 -13 -13
-14 -17 -18 -19 -18 -19 -19 -18 -19 -18 -19 -19 -19 -19 -19 -18 -18 -18 -18 -17 -17 -17 -17 -16 -16 -17 -17 -17 -16 -16 -15 -15 -15 -15 -14 -13 -14 -15 -14 -14 -14 -14 -14 -13 -13 -13 -13 -13 -13
-16 -18 -19 -19 -20 -20 -19 -18 -20 -20 -20 -20 -19 -19 -19 -19 -18 -19 -19 -19 -18 -18 -18 -17 -17 -17 -17 -17 -17 -16 -15 -15 -16 -15 -14 -13 -13 -14 -14 -14 -14 -14 -14 -14 -14 -13 -13 -13 -13
-18 -19 -20 -21 -21 -21 -20 -20 -20 -19 -20 -20 -20 -19 -19 -19 -19 -19 -19 -19 -19 -18 -18 -18 -17 -18 -17 -17 -17 -16 -16 -16 -16 -16 -15 -15 -14 -13 -13 -14 -14 -15 -15 -15 -14 -14 -13 -13 -13
-21 -20 -21 -22 -22 -21 -21 -21 -20 -20 -20 -20 -20 -20 -20 -20 -19 -19 -19 -19 -19 -18 -18 -18 -18 -17 -17 -16 -16 -16 -16 -16 -16 -16 -15 -15 -15 -15 -14 -14 -14 -15 -16 -15 -14 -14 -13 -13 -13
-22 -22 -23 -22 -22 -22 -22 -21 -21 -22 -21 -21 -21 -20 -20 -20 -20 -19 -19 -19 -19 -19 -18 -19 -19 -18 -18 -17 -16 -16 -16 -16 -16 -16 -15 -15 -15 -15 -14 -14 -14 -14 -15 -15 -14 -13 -13 -13 -13
Height
5868 5867 5865 5867 5868 5867 5867 5868 5867 5866 5867 5866 5866 5866 5866 5865 5865 5867 5865 5864 5863 5862 5862 5863 5862 5861 5861 5860 5860 5860 5859 5858 5858 5858 5857 5855 5854 5854 5854 5853 5852 5851 5850 5849 5848 5847 5846 5845 5844
5868 5867 5868 5868 5868 5868 5868 5868 5867 5866 5866 5866 5866 5865 5865 5864 5865 5864 5864 5863 5862 5861 5860 5860 5860 5859 5858 5857 5856 5856 5856 5854 5854 5854 5853 5853 5852 5851 5851 5850 5849 5848 5848 5848 5847 5846 5845 5843 5842
5870 5869 5869 5867 5868 5867 5868 5866 5865 5865 5865 5864 5863 5861 5860 5860 5860 5861 5860 5860 5859 5858 5859 5858 5858 5857 5856 5856 5855 5854 5853 5852 5852 5851 5850 5849 5849 5848 5847 5847 5846 5845 5845 5845 5844 5843 5843 5842 5841
5871 5871 5870 5869 5866 5866 5866 5865 5864 5863 5862 5860 5859 5858 5857 5857 5857 5857 5856 5856 5856 5855 5855 5854 5854 5853 5853 5852 5851 5850 5849 5848 5847 5847 5846 5847 5846 5845 5844 5843 5843 5842 5842 5842 5841 5841 5841 5840 5838
5872 5871 5869 5868 5867 5865 5864 5863 5863 5862 5861 5859 5858 5856 5855 5854 5853 5853 5852 5852 5852 5851 5851 5852 5851 5850 5849 5848 5846 5845 5845 5845 5844 5843 5843 5843 5842 5842 5842 5840 5840 5840 5839 5839 5839 5838 5837 5836 5836
5869 5869 5868 5867 5866 5865 5864 5862 5862 5862 5861 5860 5858 5856 5854 5853 5852 5851 5850 5848 5847 5846 5846 5847 5846 5845 5845 5844 5843 5842 5841 5841 5840 5840 5839 5839 5839 5838 5838 5837 5836 5836 5836 5836 5835 5835 5835 5833 5833
5866 5865 5865 5865 5865 5864 5864 5862 5861 5859 5857 5856 5855 5854 5853 5854 5852 5851 5850 5848 5846 5844 5843 5841 5841 5840 5840 5840 5839 5840 5839 5838 5838 5837 5836 5835 5836 5834 5835 5833 5833 5831 5832 5831 5831 5831 5830 5831 5830
5863 5862 5862 5860 5859 5859 5858 5857 5856 5854 5854 5852 5852 5851 5850 5851 5850 5849 5846 5844 5843 5841 5839 5838 5837 5836 5835 5835 5835 5834 5834 5833 5832 5832 5831 5830 5831 5830 5830 5829 5829 5829 5828 5828 5827 5826 5826 5827 5826
5860 5858 5857 5856 5854 5854 5853 5852 5851 5850 5847 5845 5844 5843 5843 5843 5842 5841 5839 5839 5838 5836 5836 5835 5833 5832 5830 5829 5829 5829 5829 5828 5827 5827 5828 5827 5826 5825 5825 5824 5824 5825 5824 5823 5823 5822 5822 5822 5821
5855 5854 5853 5852 5852 5850 5848 5848 5847 5846 5845 5842 5840 5841 5841 5838 5835 5833 5832 5831 5830 5829 5829 5828 5828 5828 5827 5826 5823 5822 5823 5822 5823 5823 5823 5823 5823 5822 5820 5820 5821 5819 5820 5818 5818 5817 5817 5818 5817
5852 5850 5849 5848 5847 5846 5844 5843 5842 5841 5839 5836 5837 5836 5835 5833 5831 5830 5827 5825 5823 5822 5821 5821 5821 5820 5820 5820 5820 5819 5819 5818 5817 5818 5817 5817 5817 5817 5817 5816 5816 5817 5815 5813 5813 5812 5812 5813 5811
5847 5845 5843 5841 5840 5838 5836 5837 5836 5835 5832 5831 5831 5828 5825 5823 5824 5824 5823 5820 5817 5816 5816 5815 5814 5813 5813 5812 5812 5813 5813 5814 5812 5812 5812 5812 5812 5811 5811 5812 5812 5811 5811 5810 5808 5807 5808 5807 5805
5843 5840 5838 5837 5835 5833 5832 5831 5829 5828 5824 5822 5821 5821 5818 5816 5816 5815 5812 5812 5810 5809 5808 5806 5806 5805 5805 5805 5804 5803 5805 5806 5806 5807 5807 5807 5806 5806 5806 5806 5807 5807 5806 5805 5804 5802 5800 5798 5800
5836 5834 5832 5830 5827 5825 5825 5823 5821 5819 5819 5816 5813 5811 5809 5810 5810 5808 5805 5805 5802 5799 5797 5798 5797 5797 5797 5797 5798 5796 5796 5797 5798 5799 5800 5800 5800 5800 5800 5801 5802 5802 5802 5798 5798 5799 5799 5798 5798
5827 5827 5825 5822 5822 5819 5819 5816 5812 5812 5809 5805 5803 5801 5797 5799 5798 5797 5797 5795 5792 5790 5787 5786 5786 5787 5788 5790 5789 5789 5790 5789 5789 5791 5792 5793 5794 5794 5794 5795 5797 5797 5795 5791 5793 5794 5794 5794 5794
5821 5820 5817 5814 5815 5811 5810 5810 5801 5802 5799 5797 5795 5790 5786 5785 5785 5783 5785 5784 5783 5782 5779 5777 5776 5777 5777 5779 5781 5780 5779 5779 5779 5781 5783 5785 5786 5786 5787 5788 5790 5792 5788 5769 5783 5789 5790 5790 5789
5814 5813 5810 5806 5802 5801 5798 5800 5794 5790 5789 5785 5782 5779 5776 5772 5771 5771 5770 5769 5769 5769 5769 5768 5768 5767 5767 5769 5771 5770 5769 5770 5771 5773 5775 5776 5777 5779 5780 5782 5784 5785 5784 5779 5778 5784 5784 5786 5785
5806 5802 5801 5798 5793 5788 5787 5789 5784 5780 5777 5774 5770 5766 5762 5760 5759 5758 5757 5756 5756 5756 5756 5756 5756 5757 5757 5757 5759 5759 5761 5760 5762 5763 5765 5766 5769 5770 5772 5775 5777 5779 5778 5776 5777 5777 5780 5780 5780
5795 5792 5789 5789 5783 5777 5775 5776 5773 5768 5763 5759 5753 5750 5747 5744 5743 5743 5741 5741 5743 5744 5745 5745 5745 5745 5745 5747 5749 5748 5750 5751 5750 5753 5754 5757 5761 5763 5765 5768 5769 5772 5772 5772 5773 5775 5776 5775 5775
5783 5778 5777 5774 5768 5763 5761 5760 5757 5753 5747 5742 5737 5734 5729 5727 5727 5727 5728 5728 5729 5729 5731 5731 5733 5734 5735 5737 5739 5740 5740 5741 5742 5742 5744 5748 5751 5754 5756 5758 5761 5764 5766 5767 5767 5769 5770 5769 5769
5771 5765 5761 5756 5753 5747 5744 5744 5742 5731 5730 5724 5722 5719 5714 5712 5712 5713 5714 5715 5716 5716 5717 5718 5720 5722 5723 5725 5728 5729 5730 5730 5730 5730 5735 5740 5742 5744 5747 5751 5753 5756 5758 5759 5761 5762 5762 5763 5764
5755 5749 5742 5739 5733 5731 5733 5719 5727 5715 5709 5705 5707 5703 5699 5699 5700 5701 5701 5702 5702 5704 5705 5707 5707 5709 5711 5712 5715 5717 5720 5722 5725 5724 5725 5728 5731 5734 5740 5742 5746 5748 5751 5752 5754 5755 5756 5757 5757
5738 5731 5728 5721 5715 5709 5720 5704 5704 5712 5699 5680 5689 5691 5687 5686 5686 5687 5687 5688 5690 5691 5693 5695 5696 5697 5699 5700 5703 5705 5707 5712 5715 5716 5716 5719 5722 5726 5731 5735 5739 5742 5743 5745 5747 5749 5750 5751 5751
5719 5713 5707 5702 5698 5688 5700 5693 5691 5688 5689 5668 5671 5675 5674 5673 5673 5674 5675 5676 5678 5679 5681 5682 5683 5684 5687 5689 5692 5695 5699 5702 5705 5708 5710 5710 5715 5720 5724 5727 5731 5735 5737 5739 5741 5743 5744 5745 5744
5701 5695 5684 5681 5680 5672 5680 5673 5676 5667 5668 5666 5662 5662 5660 5661 5661 5663 5665 5666 5667 5667 5670 5671 5671 5673 5676 5679 5681 5686 5691 5694 5696 5700 5705 5707 5709 5712 5716 5720 5724 5728 5732 5733 5735 5737 5738 5739 5739
5687 5678 5668 5659 5660 5660 5668 5659 5659 5655 5654 5653 5651 5649 5648 5649 5650 5651 5652 5654 5656 5657 5658 5661 5661 5663 5667 5670 5675 5678 5682 5684 5687 5691 5695 5699 5701 5704 5706 5711 5716 5721 5726 5728 5729 5731 5733 5733 5734
5672 5662 5655 5647 5647 5641 5646 5650 5640 5639 5639 5638 5637 5636 5635 5636 5637 5638 5640 5643 5646 5647 5648 5651 5653 5655 5659 5663 5668 5669 5669 5673 5678 5681 5684 5686 5695 5697 5695 5703 5708 5714 5718 5722 5724 5726 5728 5728 5729
5650 5649 5643 5639 5629 5627 5629 5633 5628 5624 5624 5623 5625 5624 5623 5623 5624 5626 5628 5632 5635 5637 5639 5642 5644 5647 5652 5655 5659 5661 5664 5667 5670 5674 5680 5685 5690 5662 5686 5693 5702 5708 5710 5716 5719 5721 5722 5723 5724
5632 5630 5629 5625 5624 5617 5618 5622 5616 5615 5612 5612 5613 5611 5610 5610 5611 5614 5617 5621 5625 5628 5631 5633 5636 5639 5643 5644 5650 5652 5658 5661 5666 5671 5675 5676 5677 5681 5688 5690 5696 5700 5703 5710 5714 5716 5717 5718 5719
5617 5616 5615 5611 5611 5605 5605 5608 5601 5600 5600 5601 5600 5599 5598 5599 5600 5602 5605 5609 5614 5618 5622 5627 5628 5632 5635 5638 5642 5647 5651 5655 5660 5663 5667 5670 5673 5677 5683 5687 5692 5696 5699 5705 5710 5711 5713 5714 5714
Wind_Speed
9 7 7 8 6 4 6 6 8 7 8 9 10 10 12 12 13 13 14 12 12 12 11 13 14 15 15 15 14 14 15 15 16 16 17 16 17 18 19 19 19 19 18 17 15 14 15 14 15
12 7 7 6 4 4 6 7 7 9 11 12 13 14 15 16 16 15 15 15 15 15 15 18 19 19 18 18 17 17 18 18 18 17 17 17 18 18 18 17 18 19 19 19 19 17 16 16 16
9 9 6 2 6 7 8 9 10 9 11 12 13 16 17 17 18 18 18 18 19 20 20 21 21 22 22 22 21 21 20 20 18 16 17 17 17 18 18 18 18 18 19 19 19 18 17 17 16
9 6 4 1 2 4 6 6 5 6 5 5 6 8 11 11 11 11 14 18 20 21 22 23 22 21 22 23 25 26 26 22 22 20 19 19 19 18 16 17 18 18 19 19 19 18 17 17 17
11 8 7 5 5 6 7 6 7 8 8 8 9 10 12 10 11 12 11 12 15 17 18 19 19 20 21 22 22 22 23 23 23 22 19 18 17 16 18 17 17 18 19 20 19 18 18 18 18
13 14 11 10 10 11 11 11 10 10 11 11 13 16 16 13 13 12 14 16 17 18 19 19 20 20 20 21 21 21 20 20 21 23 21 19 20 19 19 20 19 18 19 20 21 20 20 20 20
14 14 14 14 12 13 13 14 16 16 14 13 17 20 21 17 17 19 19 20 21 22 22 22 23 23 22 22 20 21 21 20 19 18 19 22 23 23 22 22 21 19 20 21 22 23 22 22 22
16 16 16 14 14 13 16 15 16 18 19 20 21 22 23 19 21 22 23 24 25 26 27 27 25 24 24 24 24 23 23 22 21 20 19 19 22 23 25 25 24 22 22 23 23 24 24 25 24
19 17 17 16 17 17 19 20 20 20 20 21 23 24 22 20 22 24 25 27 28 30 30 31 30 29 28 26 26 26 26 25 23 22 22 22 21 21 24 25 26 25 23 23 24 24 25 26 26
20 20 20 21 20 21 22 22 20 22 24 27 27 26 25 24 26 27 27 30 32 32 34 34 34 33 33 32 30 29 28 25 25 24 23 24 24 22 23 25 26 26 26 25 25 25 25 26 26
19 22 23 22 24 25 27 26 25 26 26 31 28 29 30 30 30 31 31 33 34 37 37 39 39 37 35 36 34 34 32 30 28 27 26 25 25 25 25 26 25 25 27 27 28 29 26 26 26
22 24 26 28 28 31 31 32 32 32 32 33 30 33 36 37 35 33 34 36 37 38 38 41 43 44 41 38 37 36 35 34 32 31 30 29 29 29 28 28 28 26 27 27 27 27 26 27 27
26 27 29 31 33 35 35 34 35 32 34 34 34 34 37 38 38 41 42 41 42 43 41 41 43 44 45 45 44 40 37 37 36 35 34 32 31 32 31 30 31 29 27 28 29 25 25 16 26
29 30 31 33 35 36 37 37 39 38 35 39 41 43 45 44 44 45 48 46 48 49 50 45 45 43 42 43 44 45 43 40 40 39 37 35 34 33 32 31 31 31 30 29 28 23 20 20 16
31 32 33 36 35 39 39 41 44 43 45 48 48 50 54 53 52 52 51 49 49 50 52 50 46 45 42 38 39 42 44 45 44 41 39 38 37 36 33 31 31 32 33 31 27 23 20 19 18
33 35 38 40 39 42 43 44 51 50 51 52 52 54 56 54 54 54 53 53 53 51 51 53 51 46 41 37 37 40 41 45 46 43 39 38 38 38 35 32 28 30 33 44 26 22 22 22 23
38 38 41 45 46 46 48 47 49 51 49 50 51 54 57 59 59 57 58 58 57 56 52 48 49 47 45 42 41 40 39 43 45 43 39 38 38 38 39 34 29 30 32 33 28 26 25 27 26
40 43 43 45 48 50 49 47 50 53 54 54 55 57 62 64 63 62 61 59 59 57 55 49 45 45 45 44 43 42 37 38 40 39 39 40 38 38 39 36 33 31 33 35 33 30 30 30 28
42 45 47 46 51 55 55 54 55 58 60 61 64 64 68 70 67 64 62 59 57 56 56 54 44 39 40 44 43 41 35 39 40 39 39 40 39 38 38 38 35 34 34 34 33 33 31 30 29
48 50 50 51 55 58 59 60 61 63 66 69 71 71 72 70 66 63 59 55 53 51 49 48 46 39 34 35 38 37 36 43 42 42 41 40 37 37 39 39 36 35 34 34 33 32 31 30 31
54 56 57 60 61 65 66 66 66 72 72 74 72 71 67 59 55 54 53 52 51 48 47 45 42 41 37 29 28 33 39 42 46 41 39 39 39 38 39 38 36 35 34 33 33 31 31 30 31
61 62 65 65 68 69 67 74 68 67 73 74 73 71 63 58 56 53 51 50 49 46 43 35 35 35 32 28 32 37 40 42 41 40 42 43 44 42 39 37 37 35 35 32 32 32 31 30 30
65 67 66 68 71 73 68 74 74 66 61 58 65 64 58 53 53 53 47 42 41 41 37 32 32 33 32 34 41 43 40 40 41 42 42 45 46 42 36 38 37 33 34 32 31 31 29 30 28
69 70 71 71 72 76 72 68 69 50 44 60 62 52 49 47 44 42 40 40 38 34 33 34 32 38 37 38 42 42 42 43 44 40 41 44 43 40 37 38 37 34 33 30 30 29 28 28 27
68 68 69 69 66 64 49 43 48 48 47 51 51 48 46 45 43 40 38 36 35 35 35 33 33 36 38 39 36 33 38 42 40 41 43 39 43 40 37 36 34 31 32 30 29 28 27 26 26
65 62 64 60 59 51 39 48 45 49 50 52 50 47 45 44 42 40 37 36 37 38 37 35 34 31 33 34 30 30 32 36 40 38 43 42 43 43 43 39 33 32 30 29 29 26 25 24 24
62 59 57 58 54 52 52 49 49 49 49 48 46 46 47 44 44 40 39 38 39 40 40 38 34 33 32 30 35 39 34 38 36 27 43 39 40 36 50 40 38 32 29 29 27 24 24 23 24
61 56 52 48 46 48 46 36 38 38 41 39 42 47 46 45 42 39 39 39 40 41 42 41 36 35 34 35 31 31 24 26 18 21 30 39 44 20 48 40 40 35 32 25 23 25 22 21 25
56 54 49 46 47 47 45 38 40 42 44 47 44 44 43 43 44 42 43 40 42 42 44 44 41 37 35 38 35 32 25 21 17 20 22 28 32 46 38 40 37 38 27 25 26 22 21 22 22
51 48 43 45 46 41 41 42 47 48 48 45 45 45 46 43 42 41 39 42 41 45 44 45 43 38 36 33 38 35 26 25 22 23 25 25 21 23 33 35 30 27 26 20 20 21 21 20 19
Wind_Direction
86 110 117 135 128 156 201 214 219 234 239 240 247 251 252 251 252 263 274 272 267 275 277 279 277 276 278 280 282 286 285 286 284 282 282 281 284 289 293 293 291 289 287 284 279 279 284 288 292
67 101 139 146 161 202 223 239 250 256 259 260 267 270 272 271 272 271 269 274 275 276 277 279 279 282 280 277 277 279 280 280 280 282 284 284 283 283 282 283 284 285 283 282 282 285 288 289 290
50 61 68 146 201 213 231 240 249 258 265 270 276 278 278 276 273 268 262 261 266 274 284 287 288 288 284 280 283 287 291 290 285 286 288 286 283 280 280 279 276 277 277 276 277 280 285 286 287
12 14 30 53 187 224 248 252 249 254 245 258 278 289 296 310 316 309 286 277 275 274 277 281 285 288 287 285 283 285 281 276 280 286 289 286 286 283 279 278 276 277 277 277 278 282 282 282 282
355 343 324 301 275 259 256 258 267 272 283 287 281 287 289 291 304 305 304 294 290 289 290 288 285 284 287 289 288 289 288 285 283 282 281 284 288 287 285 283 281 280 278 277 276 277 278 280 285
341 331 317 302 291 284 289 291 291 294 294 288 284 280 287 292 299 292 292 290 288 291 292 292 292 295 297 299 298 293 288 286 288 288 284 281 283 281 281 280 280 276 278 279 281 281 282 285 287
320 317 312 306 299 289 283 286 292 289 280 281 288 293 303 310 304 301 298 294 292 286 282 282 283 286 291 292 292 290 289 289 288 287 288 288 282 281 280 279 277 278 279 279 279 280 280 280 287
308 305 301 299 290 280 275 272 270 273 279 284 285 287 292 297 299 296 293 291 290 287 286 285 284 284 284 288 288 287 287 288 288 287 284 283 281 279 280 279 282 277 277 278 278 279 280 283 288
302 292 284 282 282 279 273 271 272 271 270 269 269 272 275 283 283 281 281 283 285 286 287 288 286 283 280 280 279 280 282 284 287 289 287 282 280 279 283 282 280 281 280 281 281 281 277 283 286
292 285 285 282 282 280 276 278 279 276 278 274 273 279 283 278 272 272 275 278 280 281 283 283 282 284 283 281 277 276 276 277 278 280 280 281 282 282 280 282 282 282 281 281 283 283 283 281 282
288 284 284 284 284 283 281 281 281 281 279 276 278 279 279 277 278 276 275 274 275 278 279 280 280 278 276 277 278 279 278 277 275 276 277 276 278 283 283 284 285 285 281 279 280 281 280 281 280
283 281 278 277 277 274 274 279 280 282 277 278 275 273 273 274 275 278 279 280 279 277 277 279 280 281 278 274 273 272 274 274 274 274 273 275 277 279 282 281 283 282 285 284 282 283 283 279 274
288 281 277 278 279 280 282 281 278 275 273 273 273 273 274 276 281 285 288 287 285 282 278 274 276 275 277 277 276 274 271 273 272 269 270 270 271 274 277 279 279 281 280 281 285 290 291 272 275
286 280 278 277 275 276 279 281 279 273 273 275 278 279 280 280 283 284 284 284 284 284 283 279 277 275 274 276 278 276 276 273 273 273 271 269 269 269 271 273 277 278 277 276 278 279 274 286 298
283 281 279 276 279 279 280 279 278 277 279 281 282 283 284 283 283 281 281 277 274 275 278 279 277 273 271 270 271 274 276 275 272 271 272 272 271 271 269 269 273 275 276 270 267 273 274 277 287
281 281 282 280 276 277 277 278 279 279 279 280 281 282 282 284 281 281 279 278 277 276 276 278 278 276 275 278 279 275 270 269 269 268 268 269 270 269 267 265 264 270 274 268 243 267 270 277 287
289 288 287 286 286 281 278 276 278 278 277 278 280 280 281 281 280 279 277 277 278 280 281 280 279 279 278 281 285 284 274 267 266 266 265 265 266 266 267 265 260 259 258 253 281 270 274 279 282
288 289 288 287 284 282 280 278 276 277 278 278 278 281 283 281 279 279 278 277 278 278 279 279 278 277 280 281 285 290 279 271 266 261 259 258 260 262 262 263 261 254 256 260 267 271 272 275 280
289 286 286 283 281 280 280 279 278 278 278 278 279 281 281 280 280 279 279 281 280 280 280 281 279 275 274 278 280 285 281 261 260 255 254 254 255 259 260 261 259 254 253 256 259 263 266 271 276
290 288 286 281 277 276 275 274 274 275 274 276 278 279 279 280 281 281 284 286 286 285 281 278 277 276 274 276 278 279 269 257 257 255 251 250 250 252 253 254 254 253 251 254 257 262 265 270 275
289 284 281 279 276 276 277 275 275 272 270 273 276 277 279 282 286 288 288 287 287 285 282 281 280 278 272 268 264 267 250 252 255 253 257 257 254 251 250 254 253 252 249 252 256 261 265 269 275
288 283 281 280 278 277 277 279 275 278 280 277 276 281 286 287 289 290 289 287 285 281 278 275 276 270 267 251 245 243 245 245 251 254 253 253 249 250 253 254 252 251 251 250 256 262 265 270 275
287 283 283 282 281 281 279 279 283 281 281 283 282 281 285 288 287 287 286 282 278 276 272 262 265 263 257 241 235 238 241 244 248 250 252 252 252 249 253 253 253 251 250 252 257 262 268 272 277
288 287 286 284 285 281 285 285 282 284 270 269 277 284 288 286 282 278 276 274 270 264 255 259 257 252 249 242 243 241 241 243 245 251 249 255 255 254 251 251 249 249 251 254 257 262 268 273 279
286 285 285 283 285 289 289 278 282 270 268 273 277 283 280 275 273 270 266 261 260 261 258 255 246 250 249 246 248 250 249 251 254 253 244 242 253 247 250 248 248 247 250 252 256 261 265 273 281
286 287 286 289 286 283 270 267 264 266 270 273 279 275 272 272 269 266 258 250 251 250 256 253 251 246 249 248 244 246 245 244 242 253 241 246 247 242 240 241 243 245 248 251 256 259 267 274 281
288 285 286 284 284 281 282 278 271 275 273 275 273 273 275 268 262 255 254 248 245 244 248 249 253 250 246 267 253 248 241 240 241 244 234 232 237 238 242 233 238 240 244 250 256 260 266 275 278
286 287 286 284 284 284 286 283 265 264 266 264 270 276 272 266 259 253 250 249 246 241 245 247 253 256 252 254 241 237 213 221 229 235 240 237 227 128 221 225 233 235 232 248 259 260 266 272 277
291 287 282 275 271 276 275 269 266 263 264 268 274 276 272 265 261 255 247 246 243 241 244 249 250 256 265 247 238 228 221 230 236 242 242 248 252 246 252 233 241 232 228 240 250 259 263 270 276
287 284 279 271 275 273 268 264 266 266 266 271 273 274 274 269 266 261 252 245 249 242 241 241 249 253 258 226 226 228 216 224 225 241 243 252 254 250 217 235 248 251 221 241 255 258 262 271 274